Weather reports worldwide

Advertisment
Levens Hall, United Kingdom (99172): temperature & dewpoint: 21.04.2017 04:00:00 - 27.04.2017 04:00:00 (BST)Levens Hall, United Kingdom (99172): precipitation: 21.04.2017 04:00:00 - 27.04.2017 04:00:00 (BST)
Date & Time tt [°C] td [°C] rr [mm]
27.04.2017 04:00:00 - - -
27.04.2017 03:00:00 2,2 0,3 0,0
27.04.2017 02:00:00 1,8 0,0 0,0
27.04.2017 01:00:00 2,3 -0,6 0,0
27.04.2017 00:00:00 4,0 0,5 0,0
26.04.2017 23:00:00 4,8 1,0 0,0
26.04.2017 22:00:00 5,4 0,2 0,0
26.04.2017 21:00:00 6,3 -0,9 0,0
26.04.2017 20:00:00 7,1 -1,5 0,0
26.04.2017 19:00:00 7,9 -2,0 0,0
26.04.2017 18:00:00 8,1 -2,2 0,0
26.04.2017 17:00:00 9,0 -3,1 0,0
26.04.2017 16:00:00 8,9 -2,3 0,0
26.04.2017 15:00:00 8,8 -4,2 0,0
26.04.2017 14:00:00 9,6 -0,9 0,0
26.04.2017 13:00:00 8,1 -2,7 0,0
26.04.2017 12:00:00 8,3 -0,5 0,0
26.04.2017 11:00:00 7,3 -1,5 0,0
26.04.2017 10:00:00 6,0 -1,8 0,0
26.04.2017 09:00:00 5,1 -2,2 0,0
26.04.2017 08:00:00 3,5 -2,4 0,0
26.04.2017 07:00:00 0,9 -1,1 0,0
26.04.2017 06:00:00 -0,4 -3,0 0,0
26.04.2017 05:00:00 0,9 -2,9 0,0
26.04.2017 04:00:00 2,7 -2,4 0,0
26.04.2017 03:00:00 2,9 -2,1 0,0
26.04.2017 02:00:00 2,7 -1,7 0,0
26.04.2017 01:00:00 3,9 -1,5 0,0
26.04.2017 00:00:00 4,4 -1,3 0,0
25.04.2017 23:00:00 4,4 -0,4 0,0
25.04.2017 22:00:00 4,6 -0,8 0,0
25.04.2017 21:00:00 4,6 0,0 0,0
25.04.2017 20:00:00 5,0 -0,2 0,0
25.04.2017 19:00:00 4,8 1,4 0,0
25.04.2017 18:00:00 7,4 1,1 0,0
25.04.2017 17:00:00 7,7 -0,5 0,0
25.04.2017 16:00:00 6,4 1,0 0,0
25.04.2017 15:00:00 8,2 1,3 0,0
25.04.2017 14:00:00 6,5 1,7 0,2
25.04.2017 13:00:00 8,5 -0,3 0,0
25.04.2017 12:00:00 8,5 0,3 0,0
25.04.2017 11:00:00 7,4 -1,4 0,0
25.04.2017 10:00:00 6,9 -0,9 0,0
25.04.2017 09:00:00 5,4 -1,0 0,2
25.04.2017 08:00:00 2,2 -0,8 0,0
25.04.2017 07:00:00 -0,6 -2,1 0,0
25.04.2017 06:00:00 1,4 -2,2 0,0
25.04.2017 05:00:00 0,0 -1,3 0,0
25.04.2017 04:00:00 -1,6 -2,3 0,0
25.04.2017 03:00:00 -1,5 -2,3 0,0
25.04.2017 02:00:00 -1,1 -1,9 0,0
25.04.2017 01:00:00 -1,1 -1,9 0,0
25.04.2017 00:00:00 -0,9 -1,8 0,0
24.04.2017 23:00:00 -0,3 -1,1 0,0
24.04.2017 22:00:00 0,3 -0,5 0,0
24.04.2017 21:00:00 1,4 -0,2 0,6
24.04.2017 20:00:00 3,8 -0,6 0,0
24.04.2017 19:00:00 6,7 -2,7 0,0
24.04.2017 18:00:00 7,9 -3,4 0,0
24.04.2017 17:00:00 7,6 -0,2 0,0
24.04.2017 16:00:00 9,7 -3,1 0,0
24.04.2017 15:00:00 10,4 -0,3 0,2
24.04.2017 14:00:00 9,4 0,6 0,0
24.04.2017 13:00:00 9,7 0,6 0,0
24.04.2017 12:00:00 10,6 1,3 0,0
24.04.2017 11:00:00 10,6 2,4 0,0
24.04.2017 10:00:00 9,9 2,8 0,2
24.04.2017 09:00:00 9,4 6,8 0,2
24.04.2017 08:00:00 9,1 6,3 0,4
24.04.2017 07:00:00 9,1 6,0 0,0
24.04.2017 06:00:00 8,3 5,2 0,0
24.04.2017 05:00:00 8,9 6,2 0,0
24.04.2017 04:00:00 8,7 6,6 0,0
24.04.2017 03:00:00 8,9 6,7 0,0
24.04.2017 02:00:00 8,4 6,8 0,0
24.04.2017 01:00:00 7,7 6,6 0,0
24.04.2017 00:00:00 7,9 6,7 0,0
23.04.2017 23:00:00 9,0 7,8 0,0
23.04.2017 22:00:00 8,3 7,8 0,2
23.04.2017 21:00:00 8,3 5,8 0,0
23.04.2017 20:00:00 8,7 5,0 0,0
23.04.2017 19:00:00 9,9 4,3 0,0
23.04.2017 18:00:00 10,0 4,3 0,0
23.04.2017 17:00:00 11,6 4,3 0,0
23.04.2017 16:00:00 11,3 3,9 0,0
23.04.2017 15:00:00 12,0 4,0 0,0
23.04.2017 14:00:00 12,1 4,8 0,0
23.04.2017 13:00:00 11,6 4,9 0,0
23.04.2017 12:00:00 11,4 5,5 0,0
23.04.2017 11:00:00 9,5 4,8 0,0
23.04.2017 10:00:00 8,2 4,2 0,0
23.04.2017 09:00:00 6,1 4,6 0,0
23.04.2017 08:00:00 3,3 2,7 0,0
23.04.2017 07:00:00 1,3 1,0 0,0
23.04.2017 06:00:00 0,6 0,1 0,0
23.04.2017 05:00:00 0,9 0,3 0,0
23.04.2017 04:00:00 1,6 1,0 0,0
23.04.2017 03:00:00 1,7 1,0 0,0
23.04.2017 02:00:00 2,2 1,3 0,0
23.04.2017 01:00:00 2,8 1,8 0,0
23.04.2017 00:00:00 3,8 2,8 0,0
22.04.2017 23:00:00 4,4 2,9 0,0
22.04.2017 22:00:00 5,6 3,4 0,0
22.04.2017 21:00:00 7,1 3,5 0,0
22.04.2017 20:00:00 9,5 2,7 0,0
22.04.2017 19:00:00 11,2 3,0 0,0
22.04.2017 18:00:00 12,4 1,2 0,0
22.04.2017 17:00:00 13,1 0,9 0,0
22.04.2017 16:00:00 11,9 3,3 0,0
22.04.2017 15:00:00 11,5 3,2 0,0
22.04.2017 14:00:00 11,4 3,7 0,0
22.04.2017 13:00:00 12,0 2,4 0,0
22.04.2017 12:00:00 10,6 3,6 0,0
22.04.2017 11:00:00 10,7 1,5 0,0
22.04.2017 10:00:00 8,8 2,8 0,0
22.04.2017 09:00:00 7,7 3,9 0,0
22.04.2017 08:00:00 3,6 2,1 0,0
22.04.2017 07:00:00 1,7 1,1 0,0
22.04.2017 06:00:00 1,0 0,2 0,0
22.04.2017 05:00:00 1,3 0,3 0,0
22.04.2017 04:00:00 2,1 1,2 0,0
22.04.2017 03:00:00 2,8 1,4 0,0
22.04.2017 02:00:00 3,9 2,2 0,0
22.04.2017 01:00:00 5,2 2,9 0,0
22.04.2017 00:00:00 6,8 3,3 0,0
21.04.2017 23:00:00 6,5 3,3 0,0
21.04.2017 22:00:00 9,1 5,5 0,0
21.04.2017 21:00:00 10,3 7,3 0,0
21.04.2017 20:00:00 10,8 7,6 0,0
21.04.2017 19:00:00 12,1 8,4 0,0
21.04.2017 18:00:00 12,8 8,1 0,0
21.04.2017 17:00:00 12,8 8,2 0,0
21.04.2017 16:00:00 14,0 7,7 0,0
21.04.2017 15:00:00 14,0 8,2 0,0
21.04.2017 14:00:00 11,8 7,8 0,0
21.04.2017 13:00:00 12,7 7,6 0,0
21.04.2017 12:00:00 12,9 8,8 0,0
21.04.2017 11:00:00 11,9 9,0 0,0
21.04.2017 10:00:00 10,7 8,2 0,0
21.04.2017 09:00:00 10,7 8,4 0,0
21.04.2017 08:00:00 10,1 8,4 0,0
21.04.2017 07:00:00 9,8 8,2 0,0
21.04.2017 06:00:00 9,9 7,7 0,0
21.04.2017 05:00:00 10,0 7,8 0,0
21.04.2017 04:00:00 9,4 8,2 0,0

tt = temperature
td = dewpoint
rr = precipitation

Next stations